Time,TemperatureF,DewpointF,PressureIn,WindDirection,WindDirectionDegrees,WindSpeedMPH,WindSpeedGustMPH,Humidity,HourlyPrecipIn,Conditions,Clouds,dailyrainin,SoftwareType,DateUTC
2013-07-17 00:01:00,66.0,46.0,30.22,ESE,112,16.0,20.0,49,0.00,,,-99.99,,2013-07-17 06:01:00,
2013-07-17 00:11:00,65.0,47.0,30.21,East,101,15.0,28.0,52,0.00,,,-99.99,,2013-07-17 06:11:00,
2013-07-17 00:22:00,64.0,47.0,30.22,ESE,115,14.0,27.0,54,0.00,,,-99.99,,2013-07-17 06:22:00,
2013-07-17 00:32:00,66.0,46.0,30.22,ENE,75,11.0,22.0,48,0.00,,,-99.99,,2013-07-17 06:32:00,
2013-07-17 00:43:00,65.0,46.0,30.22,East,97,23.0,32.0,50,0.00,,,-99.99,,2013-07-17 06:43:00,
2013-07-17 00:52:00,64.0,48.0,30.23,SE,126,14.0,28.0,56,0.00,,,-99.99,,2013-07-17 06:52:00,
2013-07-17 01:01:00,63.0,51.0,30.23,East,80,12.0,28.0,64,0.00,,,-99.99,,2013-07-17 07:01:00,
2013-07-17 01:11:00,61.0,53.0,30.24,SE,127,11.0,18.0,74,0.02,,,-99.99,,2013-07-17 07:11:00,
2013-07-17 01:22:00,60.0,53.0,30.24,ESE,120,8.0,14.0,79,0.05,,,-99.99,,2013-07-17 07:22:00,
2013-07-17 01:32:00,60.0,53.0,30.25,SE,142,10.0,10.0,79,0.06,,,-99.99,,2013-07-17 07:32:00,
2013-07-17 01:42:00,61.0,52.0,30.25,SE,125,9.0,10.0,72,0.06,,,-99.99,,2013-07-17 07:42:00,
2013-07-17 01:52:00,62.0,52.0,30.25,South,180,9.0,12.0,69,0.06,,,-99.99,,2013-07-17 07:52:00,
2013-07-17 02:01:00,63.0,51.0,30.25,East,88,4.0,7.0,66,0.06,,,-99.99,,2013-07-17 08:01:00,
2013-07-17 02:11:00,63.0,52.0,30.25,SE,136,5.0,6.0,68,0.06,,,-99.99,,2013-07-17 08:11:00,
2013-07-17 02:22:00,63.0,51.0,30.25,South,189,1.0,6.0,64,0.06,,,-99.99,,2013-07-17 08:22:00,
2013-07-17 02:32:00,63.0,53.0,30.25,SW,222,0.0,2.0,69,0.06,,,-99.99,,2013-07-17 08:32:00,
2013-07-17 02:43:00,63.0,51.0,30.26,NNE,12,2.0,0.0,66,0.06,,,-99.99,,2013-07-17 08:43:00,
2013-07-17 02:53:00,63.0,51.0,30.25,NNE,25,1.0,4.0,66,0.06,,,-99.99,,2013-07-17 08:53:00,
2013-07-17 03:02:00,63.0,51.0,30.26,NE,39,0.0,4.0,66,0.06,,,-99.99,,2013-07-17 09:02:00,
2013-07-17 03:12:00,63.0,50.0,30.26,NNE,30,2.0,3.0,63,0.06,,,-99.99,,2013-07-17 09:12:00,
2013-07-17 03:22:00,63.0,51.0,30.25,NNE,19,4.0,5.0,65,0.06,,,-99.99,,2013-07-17 09:22:00,
2013-07-17 03:32:00,62.0,51.0,30.25,NE,42,6.0,6.0,66,0.06,,,-99.99,,2013-07-17 09:32:00,
2013-07-17 03:43:00,62.0,51.0,30.26,NNE,22,0.0,1.0,66,0.06,,,-99.99,,2013-07-17 09:43:00,
2013-07-17 03:52:00,62.0,52.0,30.25,NNW,333,3.0,5.0,71,0.06,,,-99.99,,2013-07-17 09:52:00,
2013-07-17 04:01:00,61.0,50.0,30.26,NE,39,4.0,8.0,68,0.06,,,-99.99,,2013-07-17 10:01:00,
2013-07-17 04:11:00,62.0,51.0,30.26,North,4,0.0,4.0,66,0.06,,,-99.99,,2013-07-17 10:11:00,
2013-07-17 04:22:00,62.0,50.0,30.27,East,98,3.0,0.0,65,0.06,,,-99.99,,2013-07-17 10:22:00,
2013-07-17 04:32:00,62.0,50.0,30.26,NNE,25,1.0,5.0,64,0.06,,,-99.99,,2013-07-17 10:32:00,
2013-07-17 04:43:00,62.0,50.0,30.27,NE,47,3.0,4.0,65,0.06,,,-99.99,,2013-07-17 10:43:00,
2013-07-17 04:52:00,62.0,51.0,30.27,NE,52,4.0,6.0,66,0.06,,,-99.99,,2013-07-17 10:52:00,
2013-07-17 05:01:00,62.0,51.0,30.27,ENE,77,3.0,8.0,67,0.06,,,-99.99,,2013-07-17 11:01:00,
2013-07-17 05:11:00,61.0,51.0,30.28,NNE,22,2.0,4.0,69,0.06,,,-99.99,,2013-07-17 11:11:00,
2013-07-17 05:22:00,61.0,51.0,30.28,NE,42,0.0,4.0,70,0.06,,,-99.99,,2013-07-17 11:22:00,
2013-07-17 05:32:00,61.0,51.0,30.28,NNE,14,4.0,0.0,70,0.06,,,-99.99,,2013-07-17 11:32:00,
2013-07-17 05:42:00,62.0,52.0,30.28,ENE,64,5.0,7.0,69,0.06,,,-99.99,,2013-07-17 11:42:00,
2013-07-17 06:01:00,62.0,51.0,30.29,NNE,33,4.0,6.0,68,0.06,,,-99.99,,2013-07-17 12:01:00,
2013-07-17 06:12:00,61.0,51.0,30.29,NE,37,0.0,4.0,70,0.06,,,-99.99,,2013-07-17 12:12:00,
2013-07-17 06:22:00,61.0,51.0,30.29,NE,39,3.0,3.0,70,0.06,,,-99.99,,2013-07-17 12:22:00,
2013-07-17 06:32:00,61.0,51.0,30.29,NNE,19,1.0,2.0,70,0.06,,,-99.99,,2013-07-17 12:32:00,
2013-07-17 06:42:00,61.0,52.0,30.30,NNW,340,0.0,1.0,72,0.06,,,-99.99,,2013-07-17 12:42:00,
2013-07-17 06:53:00,60.0,51.0,30.30,NNW,340,0.0,0.0,72,0.06,,,-99.99,,2013-07-17 12:53:00,
2013-07-17 07:01:00,60.0,52.0,30.30,NNW,340,0.0,0.0,74,0.06,,,-99.99,,2013-07-17 13:01:00,
2013-07-17 07:12:00,60.0,52.0,30.31,NNW,338,0.0,0.0,74,0.06,,,-99.99,,2013-07-17 13:12:00,
2013-07-17 07:22:00,62.0,52.0,30.31,NNW,333,2.0,7.0,70,0.06,,,-99.99,,2013-07-17 13:22:00,
2013-07-17 07:32:00,62.0,52.0,30.31,NNW,333,3.0,3.0,70,0.06,,,-99.99,,2013-07-17 13:32:00,
2013-07-17 07:43:00,62.0,52.0,30.31,NNW,333,3.0,3.0,70,0.06,,,-99.99,,2013-07-17 13:43:00,
2013-07-17 07:52:00,62.0,52.0,30.29,North,358,2.0,5.0,71,0.06,,,-99.99,,2013-07-17 13:52:00,
2013-07-17 08:02:00,63.0,53.0,30.30,NW,319,3.0,4.0,70,0.06,,,-99.99,,2013-07-17 14:02:00,
2013-07-17 08:11:00,63.0,53.0,30.30,NW,310,0.0,0.0,70,0.06,,,-99.99,,2013-07-17 14:11:00,
2013-07-17 08:22:00,63.0,52.0,30.30,NW,310,0.0,0.0,67,0.06,,,-99.99,,2013-07-17 14:22:00,
2013-07-17 08:32:00,64.0,53.0,30.30,NW,326,0.0,3.0,67,0.06,,,-99.99,,2013-07-17 14:32:00,
2013-07-17 08:43:00,64.0,52.0,30.30,NE,49,0.0,4.0,66,0.06,,,-99.99,,2013-07-17 14:43:00,
2013-07-17 08:52:00,65.0,52.0,30.31,East,87,0.0,4.0,62,0.06,,,-99.99,,2013-07-17 14:52:00,
2013-07-17 09:01:00,65.0,52.0,30.30,ESE,104,0.0,0.0,63,0.06,,,-99.99,,2013-07-17 15:01:00,
2013-07-17 09:12:00,65.0,51.0,30.30,ESE,104,0.0,0.0,61,0.06,,,-99.99,,2013-07-17 15:12:00,
2013-07-17 09:21:00,66.0,51.0,30.30,ESE,104,0.0,0.0,59,0.06,,,-99.99,,2013-07-17 15:21:00,
2013-07-17 09:32:00,66.0,50.0,30.29,SW,225,4.0,0.0,56,0.06,,,-99.99,,2013-07-17 15:32:00,
2013-07-17 09:42:00,66.0,51.0,30.28,WSW,257,0.0,8.0,59,0.06,,,-99.99,,2013-07-17 15:42:00,
2013-07-17 09:52:00,66.0,51.0,30.29,SSW,199,6.0,7.0,58,0.06,,,-99.99,,2013-07-17 15:52:00,
2013-07-17 10:01:00,67.0,52.0,30.28,WNW,300,5.0,9.0,58,0.06,,,-99.99,,2013-07-17 16:01:00,
2013-07-17 10:11:00,67.0,51.0,30.28,West,278,6.0,6.0,56,0.06,,,-99.99,,2013-07-17 16:11:00,
2013-07-17 10:21:00,67.0,50.0,30.28,WSW,244,0.0,9.0,55,0.06,,,-99.99,,2013-07-17 16:21:00,
2013-07-17 10:33:00,67.0,49.0,30.28,SW,226,1.0,4.0,53,0.06,,,-99.99,,2013-07-17 16:33:00,
2013-07-17 10:42:00,67.0,49.0,30.28,South,180,7.0,7.0,53,0.06,,,-99.99,,2013-07-17 16:42:00,
2013-07-17 10:52:00,68.0,49.0,30.27,SW,216,1.0,8.0,50,0.06,,,-99.99,,2013-07-17 16:52:00,
2013-07-17 11:01:00,69.0,50.0,30.26,South,171,6.0,6.0,50,0.06,,,-99.99,,2013-07-17 17:01:00,
2013-07-17 11:11:00,69.0,46.0,30.27,ENE,75,8.0,8.0,43,0.06,,,-99.99,,2013-07-17 17:11:00,
2013-07-17 11:21:00,69.0,47.0,30.26,East,94,6.0,11.0,46,0.06,,,-99.99,,2013-07-17 17:21:00,
2013-07-17 11:32:00,70.0,46.0,30.26,SE,129,2.0,11.0,42,0.06,,,-99.99,,2013-07-17 17:32:00,
2013-07-17 11:43:00,71.0,47.0,30.25,East,87,6.0,6.0,42,0.06,,,-99.99,,2013-07-17 17:43:00,
2013-07-17 11:52:00,71.0,47.0,30.25,North,1,0.0,7.0,43,0.06,,,-99.99,,2013-07-17 17:52:00,
2013-07-17 12:01:00,71.0,46.0,30.25,ESE,102,0.0,6.0,41,0.06,,,-99.99,,2013-07-17 18:01:00,
2013-07-17 12:11:00,72.0,46.0,30.24,SE,133,5.0,21.0,39,0.06,,,-99.99,,2013-07-17 18:11:00,
2013-07-17 12:22:00,71.0,46.0,30.24,SE,143,6.0,10.0,41,0.06,,,-99.99,,2013-07-17 18:22:00,
2013-07-17 12:32:00,71.0,46.0,30.24,East,87,0.0,0.0,41,0.06,,,-99.99,,2013-07-17 18:32:00,
2013-07-17 12:43:00,71.0,47.0,30.23,WNW,286,6.0,6.0,42,0.06,,,-99.99,,2013-07-17 18:43:00,
2013-07-17 12:52:00,72.0,46.0,30.23,WNW,295,7.0,9.0,40,0.06,,,-99.99,,2013-07-17 18:52:00,
2013-07-17 13:01:00,72.0,46.0,30.23,WSW,255,6.0,10.0,39,0.06,,,-99.99,,2013-07-17 19:01:00,
2013-07-17 13:11:00,72.0,45.0,30.23,South,177,6.0,9.0,38,0.06,,,-99.99,,2013-07-17 19:11:00,
2013-07-17 13:22:00,72.0,46.0,30.23,South,191,7.0,13.0,39,0.06,,,-99.99,,2013-07-17 19:22:00,
2013-07-17 13:32:00,72.0,44.0,30.22,SSW,199,0.0,8.0,37,0.06,,,-99.99,,2013-07-17 19:32:00,
2013-07-17 13:43:00,72.0,44.0,30.22,NW,307,2.0,8.0,37,0.06,,,-99.99,,2013-07-17 19:43:00,
2013-07-17 13:53:00,73.0,46.0,30.22,ENE,61,14.0,14.0,38,0.06,,,-99.99,,2013-07-17 19:53:00,
2013-07-17 14:01:00,74.0,45.0,30.21,ESE,102,7.0,15.0,36,0.06,,,-99.99,,2013-07-17 20:01:00,
2013-07-17 14:11:00,75.0,45.0,30.21,East,101,15.0,20.0,35,0.06,,,-99.99,,2013-07-17 20:11:00,
2013-07-17 14:22:00,74.0,45.0,30.21,SSE,149,7.0,19.0,35,0.06,,,-99.99,,2013-07-17 20:22:00,
2013-07-17 14:33:00,75.0,47.0,30.21,South,180,11.0,16.0,37,0.06,,,-99.99,,2013-07-17 20:33:00,
2013-07-17 14:43:00,74.0,46.0,30.20,SE,132,9.0,19.0,37,0.06,,,-99.99,,2013-07-17 20:43:00,
2013-07-17 14:52:00,75.0,45.0,30.20,East,98,10.0,14.0,35,0.06,,,-99.99,,2013-07-17 20:52:00,
2013-07-17 15:01:00,76.0,46.0,30.19,SSE,153,9.0,14.0,34,0.06,,,-99.99,,2013-07-17 21:01:00,
2013-07-17 15:12:00,76.0,46.0,30.19,SE,142,11.0,14.0,35,0.06,,,-99.99,,2013-07-17 21:12:00,
2013-07-17 15:32:00,76.0,45.0,30.18,SW,222,6.0,15.0,33,0.06,,,-99.99,,2013-07-17 21:32:00,
2013-07-17 15:42:00,76.0,45.0,30.19,SSE,161,15.0,18.0,33,0.06,,,-99.99,,2013-07-17 21:42:00,
2013-07-17 15:52:00,76.0,46.0,30.18,South,172,12.0,17.0,35,0.06,,,-99.99,,2013-07-17 21:52:00,
2013-07-17 16:01:00,75.0,45.0,30.18,SE,142,11.0,17.0,34,0.06,,,-99.99,,2013-07-17 22:01:00,
2013-07-17 16:11:00,76.0,46.0,30.18,SSE,163,9.0,17.0,34,0.06,,,-99.99,,2013-07-17 22:11:00,
2013-07-17 16:21:00,75.0,44.0,30.18,SSE,154,14.0,18.0,33,0.06,,,-99.99,,2013-07-17 22:21:00,
2013-07-17 16:32:00,75.0,44.0,30.17,SSE,149,10.0,17.0,33,0.06,,,-99.99,,2013-07-17 22:32:00,
2013-07-17 16:43:00,76.0,44.0,30.17,SSE,154,8.0,13.0,32,0.06,,,-99.99,,2013-07-17 22:43:00,
2013-07-17 16:53:00,77.0,42.0,30.16,ESE,106,10.0,12.0,29,0.06,,,-99.99,,2013-07-17 22:53:00,
2013-07-17 17:01:00,78.0,42.0,30.15,SSW,194,9.0,10.0,28,0.06,,,-99.99,,2013-07-17 23:01:00,
2013-07-17 17:11:00,77.0,42.0,30.15,SW,233,5.0,14.0,29,0.06,,,-99.99,,2013-07-17 23:11:00,
2013-07-17 17:22:00,78.0,45.0,30.15,SE,125,9.0,14.0,31,0.06,,,-99.99,,2013-07-17 23:22:00,
2013-07-17 17:32:00,76.0,44.0,30.14,SE,127,8.0,15.0,32,0.06,,,-99.99,,2013-07-17 23:32:00,
2013-07-17 17:42:00,76.0,44.0,30.15,South,172,8.0,18.0,32,0.06,,,-99.99,,2013-07-17 23:42:00,
2013-07-17 17:52:00,77.0,44.0,30.14,SE,139,11.0,16.0,31,0.06,,,-99.99,,2013-07-17 23:52:00,
2013-07-17 18:01:00,77.0,46.0,30.14,SE,143,11.0,18.0,33,0.06,,,-99.99,,2013-07-18 00:01:00,
2013-07-17 18:11:00,77.0,46.0,30.14,South,185,13.0,18.0,33,0.06,,,-99.99,,2013-07-18 00:11:00,
2013-07-17 18:22:00,77.0,45.0,30.13,SE,140,8.0,16.0,32,0.06,,,-99.99,,2013-07-18 00:22:00,
2013-07-17 18:33:00,77.0,45.0,30.13,SE,129,12.0,13.0,32,0.06,,,-99.99,,2013-07-18 00:33:00,
2013-07-17 18:43:00,77.0,45.0,30.12,SSE,149,12.0,19.0,32,0.06,,,-99.99,,2013-07-18 00:43:00,
2013-07-17 18:52:00,77.0,44.0,30.13,SE,130,12.0,13.0,31,0.06,,,-99.99,,2013-07-18 00:52:00,
2013-07-17 19:01:00,76.0,45.0,30.14,South,189,13.0,17.0,33,0.06,,,-99.99,,2013-07-18 01:01:00,
2013-07-17 19:11:00,76.0,45.0,30.14,SE,129,9.0,14.0,33,0.06,,,-99.99,,2013-07-18 01:11:00,
2013-07-17 19:22:00,76.0,46.0,30.14,SSE,163,8.0,16.0,34,0.06,,,-99.99,,2013-07-18 01:22:00,
2013-07-17 19:32:00,75.0,45.0,30.15,SE,140,10.0,13.0,35,0.06,,,-99.99,,2013-07-18 01:32:00,
2013-07-17 19:42:00,75.0,46.0,30.15,SE,144,11.0,20.0,36,0.06,,,-99.99,,2013-07-18 01:42:00,
2013-07-17 20:01:00,74.0,49.0,30.16,SSE,154,9.0,18.0,41,0.06,,,-99.99,,2013-07-18 02:01:00,
2013-07-17 20:11:00,73.0,48.0,30.16,SE,146,10.0,14.0,41,0.06,,,-99.99,,2013-07-18 02:11:00,
2013-07-17 20:32:00,71.0,49.0,30.18,SE,142,14.0,21.0,45,0.06,,,-99.99,,2013-07-18 02:32:00,
2013-07-17 20:42:00,71.0,49.0,30.18,ESE,120,14.0,22.0,46,0.06,,,-99.99,,2013-07-18 02:42:00,
2013-07-17 20:52:00,70.0,49.0,30.19,South,171,12.0,24.0,48,0.06,,,-99.99,,2013-07-18 02:52:00,
2013-07-17 21:01:00,70.0,49.0,30.20,SE,125,9.0,17.0,48,0.06,,,-99.99,,2013-07-18 03:01:00,
2013-07-17 21:11:00,70.0,50.0,30.20,SE,137,13.0,19.0,49,0.06,,,-99.99,,2013-07-18 03:11:00,
2013-07-17 21:22:00,70.0,50.0,30.20,SE,130,14.0,20.0,49,0.06,,,-99.99,,2013-07-18 03:22:00,
2013-07-17 21:32:00,70.0,50.0,30.21,ESE,116,7.0,17.0,50,0.06,,,-99.99,,2013-07-18 03:32:00,
2013-07-17 21:43:00,69.0,49.0,30.21,SE,127,7.0,13.0,49,0.06,,,-99.99,,2013-07-18 03:43:00,
2013-07-17 21:52:00,69.0,51.0,30.22,ENE,74,14.0,19.0,52,0.06,,,-99.99,,2013-07-18 03:52:00,
2013-07-17 22:02:00,69.0,51.0,30.23,East,95,13.0,24.0,52,0.06,,,-99.99,,2013-07-18 04:02:00,
2013-07-17 22:12:00,69.0,51.0,30.22,East,92,15.0,24.0,52,0.06,,,-99.99,,2013-07-18 04:12:00,
2013-07-17 22:22:00,69.0,51.0,30.23,East,99,19.0,26.0,52,0.06,,,-99.99,,2013-07-18 04:22:00,
2013-07-17 22:32:00,68.0,50.0,30.23,East,98,15.0,24.0,52,0.06,,,-99.99,,2013-07-18 04:32:00,
2013-07-17 22:43:00,68.0,50.0,30.24,East,84,11.0,20.0,52,0.06,,,-99.99,,2013-07-18 04:43:00,
2013-07-17 22:52:00,68.0,50.0,30.24,East,97,11.0,19.0,52,0.06,,,-99.99,,2013-07-18 04:52:00,
2013-07-17 23:02:00,68.0,50.0,30.24,East,82,13.0,16.0,52,0.06,,,-99.99,,2013-07-18 05:02:00,
2013-07-17 23:11:00,68.0,50.0,30.24,East,91,19.0,25.0,52,0.06,,,-99.99,,2013-07-18 05:11:00,
2013-07-17 23:21:00,68.0,49.0,30.24,East,95,18.0,25.0,51,0.06,,,-99.99,,2013-07-18 05:21:00,
2013-07-17 23:32:00,68.0,50.0,30.24,East,88,15.0,28.0,52,0.06,,,-99.99,,2013-07-18 05:32:00,
2013-07-17 23:42:00,68.0,49.0,30.24,East,95,14.0,22.0,51,0.06,,,-99.99,,2013-07-18 05:42:00,
2013-07-17 23:52:00,68.0,49.0,30.25,East,94,10.0,15.0,50,0.06,,,-99.99,,2013-07-18 05:52:00,